Starlink 31097

operational
NORAD ID: 58718 Int'l Des: 2024-002 Owner: SPXS Country: US Constellation: starlink
LEOCIRCULAR

About Starlink 31097

Description loading...

Live Position

Loading 3D Globe...

Upcoming Passes

Altitude History

Altitude vs Time

uPlot chart will show altitude changes over time

Two-Line Element Set

1 58718U 24002P 25304.87780321 .00001110 00000-0 49602-4 0 9995
2 58718 53.1595 108.2524 0000806 83.8235 276.2857 15.30196494102297
Epoch: Oct 31, 2025 • Age: 37 hours

Current Status

Altitude 484.6 km
Velocity 7.62 km/s
Sub-Earth Point -29.83°S, 124.08°W
Launch Date Jan 3, 2024
Age 1.8 years
Type internet

Technical Details

Classification Payload
Mass 730.00 kg
Dry Mass 700.00 kg
Total Mass 730.00 kg
Length 0.30 m
Diameter 4.10 m
Span 29.00 m
Shape Box + pan
Manufacturer SPXS
Bus Type Starlink V2M
Phase Status In Orbit
Owner/State SPXS/US

Large Constellations

Loading constellations...